Flag Weather past 2 weeks in Apolda, Thuringia, Germany

Now
51 °F

Overcast.


Feels Like: 51 °F
Forecast: 46 / 60 °F
Wind: 1 mph from Southeast

Location: Erfurt-Bindersleben

Current Time: Oct 30, 2014 at 5:51:51 PM

Latest Report: Oct 30, 2014 at 5:00 PM


Visibility: 6 mi

Pressure: 30.28 "Hg

Humidity: 91%

Dew point: 49 °F

Location of ApoldaLocation

Historic Weather in Apolda — Graph

°F

Apolda temperature yesterday

Maximum temperature yesterday: 51 °F (at 3:00 PM)
Minimum temperature yesterday: 29 °F (at 6:00 AM)
Average temperature yesterday: 40 °F

Past Weeks' High & Low Weather Summary

 TemperatureHumidityPressure
High67 °F (Oct 19, 2:00 PM)100% (Oct 28, 2:00 AM)30.36 "Hg (Oct 28, 2:00 AM)
Low29 °F (Oct 29, 6:00 AM)61% (Oct 24, 4:00 PM)29.47 "Hg (Oct 21, 8:00 PM)
Average50 °F86%30.07 "Hg
* Reported Oct 15 5:00 PM — Oct 30 4:00 PM, Apolda, Weather by CustomWeather, © 2014

Note: Actual official high and low records may vary slightly from our data, if they occured in-between our weather recording intervals... More about our weather records

Advertising

Apolda weather history for previous 24 hours

 ConditionsComfort  
Time TempWeatherWind HumidityBarometerVisibility
4:00 PM
Oct 30
52 °FOvercast.1 mph87%30.27 "Hg6 mi
3:00 PM51 °FOvercast.1 mph89%30.27 "Hg6 mi
2:00 PM51 °FOvercast.2 mph89%30.27 "Hg6 mi
1:00 PM50 °FFog.2 mph92%30.27 "Hg4 mi
12:00 PM49 °FFog.3 mph93%30.27 "Hg4 mi
11:00 AM47 °FFog.3 mph94%30.27 "Hg3 mi
10:00 AM46 °FFog.3 mph96%30.27 "Hg2 mi
9:00 AM45 °FFog.2 mph97%30.26 "Hg2 mi
8:00 AM44 °FFog.2 mph99%30.25 "Hg1 mi
7:00 AM44 °FFog.3 mph99%30.22 "Hg1 mi
6:00 AM44 °FDrizzle. Overcast.2 mph97%30.22 "Hg1 mi
5:00 AM44 °FOvercast.2 mph95%30.21 "Hg6 mi
4:00 AM43 °FOvercast.3 mph95%30.19 "Hg6 mi
3:00 AM43 °FOvercast.3 mph93%30.19 "Hg6 mi
2:00 AM43 °FOvercast.3 mph93%30.18 "Hg6 mi
1:00 AM42 °FLight rain. Overcast.3 mph96%30.18 "Hg6 mi
12:00 AM41 °FLight rain. Overcast.3 mph94%30.18 "Hg5 mi
11:00 PM
Oct 29
42 °FOvercast.3 mph89%30.16 "Hg9 mi
10:00 PM41 °FOvercast.3 mph89%30.16 "Hg8 mi
9:00 PM41 °FOvercast.5 mph88%30.15 "Hg7 mi
8:00 PM40 °FPassing clouds.3 mph92%30.14 "Hg8 mi
7:00 PM41 °FPassing clouds.6 mph89%30.12 "Hg8 mi
6:00 PM41 °FPassing clouds.5 mph87%30.11 "Hg8 mi
5:00 PM46 °FPassing clouds.3 mph81%30.09 "Hg9 mi
Weather by CustomWeather, © 2014

See weather overviewHow to use our weather pages